Weather History for DeKalb, IL

Change the Weather History Date:

Wednesday, April 24, 2013

  Actual Average (KARR) Record (KARR)
Temperature  
Mean Temperature 40 °F 52 °F  
Max Temperature 48 °F 63 °F 82 °F (2009)
Min Temperature 32 °F 40 °F 31 °F (2012)
Degree Days  
Heating Degree Days 25 14  
Month to date heating degree days 422  
Since 1 July heating degree days 6430  
Cooling Degree Days 0 0  
Month to date cooling degree days 0  
Year to date cooling degree days 0  
Moisture  
Dew Point 29 °F    
Average Humidity 67    
Maximum Humidity 94    
Minimum Humidity 41    
Precipitation  
Precipitation 0.06 in 0.10 in 0.58 in (2009)
Month to date precipitation 2.47  
Year to date precipitation 7.79  
Sea Level Pressure  
Sea Level Pressure 30.03 in    
Wind  
Wind Speed 10 mph (WNW)    
Max Wind Speed 17 mph    
Max Gust Speed 24 mph    
Visibility 10 miles    
Events Rain , Snow    
T = Trace of Precipitation, MM = Missing Value Source: NWS Daily Summary

Daily Weather History Graph

Daily Weather History Graph

Search for Another Location

Airport:

Trip Planner

Search our weather history database for the weather conditions in past years. The results will help you decide how hot, cold, wet, or windy it might be!

Date:

Astronomy

Apr. 24, 2013 Rise Set
Actual Time 6:00 AM CDT 7:46 PM CDT
Civil Twilight 5:30 AM CDT 8:15 PM CDT
Nautical Twilight 4:54 AM CDT 8:52 PM CDT
Astronomical Twilight 4:15 AM CDT 9:31 PM CDT
Moon 6:48 PM CDT (4/24) 5:05 AM CDT (4/24)
Length of Visible Light 14h 45m
Length of Day
13h 45m
Waxing Gibbous, 98% of the Moon is Illuminated
Apr 24
Waxing Gibbous
Apr 25
Full
May 2
Last Quarter
May 9
New
May 17
First Quarter

Hourly Weather History & Observations

Time (CDT) Temp. Windchill Dew Point Humidity Pressure Visibility Wind Dir Wind Speed Gust Speed Precip Events Conditions
12:15 AM 37.4 °F 29.3 °F 32.9 °F 84% 29.96 in 10.0 mi NNW 12.7 mph - N/A Rain Rain
12:35 AM 36.9 °F 29.1 °F 32.5 °F 84% 29.98 in 10.0 mi NNW 11.5 mph 16.1 mph N/A Rain Light Rain
12:55 AM 36.3 °F 28.0 °F 32.5 °F 86% 29.98 in 10.0 mi NNW 12.7 mph - N/A Rain Rain
1:15 AM 35.6 °F 27.5 °F 32.0 °F 87% 29.98 in 10.0 mi NNW 11.5 mph 16.1 mph 0.01 in Rain Light Rain
1:35 AM 35.1 °F 25.9 °F 32.0 °F 89% 29.97 in 7.0 mi NNW 13.8 mph - 0.01 in Rain Light Rain
1:55 AM 34.0 °F 25.0 °F 31.6 °F 91% 29.97 in 5.0 mi NNW 12.7 mph - 0.03 in Snow Light Snow
2:15 AM 33.1 °F 26.9 °F 30.9 °F 92% 29.97 in 5.0 mi NNW 6.9 mph - 0.01 in Snow Light Snow
2:35 AM 32.9 °F 26.7 °F 30.7 °F 92% 29.96 in 4.0 mi NNW 6.9 mph - 0.02 in Snow Light Snow
2:55 AM 32.2 °F 26.7 °F 30.6 °F 94% 29.95 in 2.0 mi NNW 5.8 mph - 0.03 in Snow Light Snow
3:15 AM 32.5 °F 29.3 °F 30.7 °F 93% 29.96 in 5.0 mi NNW 3.5 mph - N/A   Overcast
3:35 AM 33.8 °F - 32.0 °F 93% 29.96 in 10.0 mi Calm Calm - N/A   Light Drizzle
3:55 AM 34.0 °F 28.0 °F 32.0 °F 92% 29.97 in 10.0 mi NNW 6.9 mph - N/A   Mostly Cloudy
4:15 AM 35.1 °F 31.0 °F 31.6 °F 87% 29.98 in 10.0 mi NNW 4.6 mph - N/A   Overcast
4:35 AM 35.1 °F 31.0 °F 31.5 °F 87% 29.98 in 10.0 mi NW 4.6 mph - N/A   Overcast
4:55 AM 35.1 °F 31.0 °F 31.3 °F 86% 29.98 in 10.0 mi NW 4.6 mph - N/A   Overcast
5:15 AM 35.2 °F 28.8 °F 31.1 °F 85% 29.98 in 10.0 mi NNW 8.1 mph - N/A   Overcast
5:35 AM 35.1 °F 28.6 °F 30.7 °F 84% 29.98 in 10.0 mi NNW 8.1 mph - N/A   Overcast
5:55 AM 35.1 °F 29.3 °F 30.6 °F 84% 29.98 in 10.0 mi NNW 6.9 mph - N/A   Overcast
6:15 AM 35.1 °F 30.1 °F 31.5 °F 87% 29.99 in 10.0 mi NW 5.8 mph - N/A   Overcast
6:35 AM 35.1 °F 29.3 °F 31.5 °F 87% 29.99 in 10.0 mi NNW 6.9 mph - N/A   Overcast
6:55 AM 35.1 °F 30.1 °F 30.9 °F 85% 30.00 in 10.0 mi NW 5.8 mph - N/A   Mostly Cloudy
7:15 AM 34.9 °F 29.0 °F 30.7 °F 85% 30.00 in 10.0 mi NW 6.9 mph - N/A   Scattered Clouds
7:35 AM 35.1 °F 28.6 °F 30.7 °F 84% 30.01 in 10.0 mi NW 8.1 mph - N/A   Mostly Cloudy
7:55 AM 35.1 °F 27.4 °F 30.2 °F 82% 30.00 in 10.0 mi NNW 10.4 mph - N/A   Scattered Clouds
8:15 AM 35.1 °F 27.4 °F 29.8 °F 81% 30.01 in 10.0 mi NW 10.4 mph - N/A   Clear
8:35 AM 35.4 °F 26.8 °F 30.4 °F 82% 30.01 in 10.0 mi NW 12.7 mph 17.3 mph N/A   Clear
8:55 AM 35.6 °F 27.1 °F 29.5 °F 78% 30.01 in 10.0 mi NNW 12.7 mph 17.3 mph N/A   Clear
9:15 AM 36.1 °F 27.3 °F 27.3 °F 70% 30.02 in 10.0 mi NNW 13.8 mph 17.3 mph N/A   Clear
9:35 AM 36.7 °F 29.4 °F 27.1 °F 68% 30.03 in 10.0 mi NW 10.4 mph 16.1 mph N/A   Clear
9:55 AM 37.4 °F 29.8 °F 28.0 °F 69% 30.04 in 10.0 mi NW 11.5 mph - N/A   Clear
10:15 AM 37.6 °F 30.0 °F 27.0 °F 66% 30.04 in 10.0 mi NW 11.5 mph - N/A   Clear
10:35 AM 38.3 °F 30.9 °F 26.2 °F 62% 30.04 in 10.0 mi NNW 11.5 mph - N/A   Clear
10:55 AM 39.9 °F 32.9 °F 27.7 °F 62% 30.05 in 10.0 mi NW 11.5 mph - N/A   Clear
11:15 AM 40.3 °F 33.4 °F 26.4 °F 58% 30.04 in 10.0 mi NW 11.5 mph 20.7 mph N/A   Scattered Clouds
11:35 AM 40.1 °F 32.7 °F 26.6 °F 59% 30.04 in 10.0 mi WNW 12.7 mph 21.9 mph N/A   Mostly Cloudy
11:55 AM 41.4 °F 36.8 °F 26.8 °F 56% 30.04 in 10.0 mi WNW 6.9 mph 16.1 mph N/A   Mostly Cloudy
12:15 PM 43.0 °F 36.8 °F 27.1 °F 54% 30.04 in 10.0 mi NW 11.5 mph - N/A   Scattered Clouds
12:35 PM 42.8 °F 35.1 °F 26.2 °F 52% 30.04 in 10.0 mi NW 16.1 mph - N/A   Mostly Cloudy
12:55 PM 44.4 °F 38.2 °F 27.5 °F 52% 30.04 in 10.0 mi West 12.7 mph 23.0 mph N/A   Scattered Clouds
1:15 PM 43.5 °F 37.1 °F 26.2 °F 51% 30.04 in 10.0 mi West 12.7 mph 19.6 mph N/A   Scattered Clouds
1:35 PM 44.6 °F 37.2 °F 27.1 °F 50% 30.04 in 10.0 mi West 17.3 mph 23.0 mph N/A   Mostly Cloudy
1:55 PM 46.0 °F 40.2 °F 26.2 °F 46% 30.05 in 10.0 mi WSW 12.7 mph 18.4 mph N/A   Mostly Cloudy
2:15 PM 45.9 °F 39.4 °F 26.1 °F 46% 30.05 in 10.0 mi WSW 15.0 mph 19.6 mph N/A   Scattered Clouds
2:35 PM 45.7 °F 39.5 °F 25.3 °F 45% 30.05 in 10.0 mi West 13.8 mph 17.3 mph N/A   Scattered Clouds
2:55 PM 46.0 °F 39.6 °F 26.8 °F 47% 30.05 in 10.0 mi West 15.0 mph 21.9 mph N/A   Mostly Cloudy
3:15 PM 46.4 °F 39.8 °F 26.8 °F 46% 30.05 in 10.0 mi WNW 16.1 mph 23.0 mph N/A   Mostly Cloudy
3:35 PM 48.0 °F - 26.6 °F 43% 30.05 in 10.0 mi WSW 15.0 mph 20.7 mph N/A   Scattered Clouds
3:55 PM 47.7 °F - 25.7 °F 42% 30.05 in 10.0 mi West 10.4 mph 19.6 mph N/A   Scattered Clouds
4:15 PM 48.0 °F - 27.1 °F 44% 30.05 in 10.0 mi WSW 15.0 mph 21.9 mph N/A   Scattered Clouds
4:35 PM 47.7 °F - 25.5 °F 42% 30.05 in 10.0 mi WSW 11.5 mph 21.9 mph N/A   Scattered Clouds
4:55 PM 48.2 °F - 25.2 °F 41% 30.05 in 10.0 mi West 12.7 mph 19.6 mph N/A   Scattered Clouds
5:15 PM 47.3 °F - 26.6 °F 45% 30.05 in 10.0 mi West 11.5 mph 16.1 mph N/A   Scattered Clouds
5:35 PM 47.8 °F - 25.9 °F 42% 30.05 in 10.0 mi WSW 10.4 mph - N/A   Scattered Clouds
5:55 PM 47.7 °F - 24.8 °F 41% 30.06 in 10.0 mi West 13.8 mph 20.7 mph N/A   Clear
6:15 PM 47.7 °F - 25.0 °F 41% 30.06 in 10.0 mi WSW 10.4 mph 24.2 mph N/A   Scattered Clouds
6:35 PM 46.9 °F - 24.1 °F 41% 30.06 in 10.0 mi WSW 12.7 mph 23.0 mph N/A   Scattered Clouds
6:55 PM 46.4 °F 39.8 °F 25.7 °F 44% 30.06 in 10.0 mi SW 16.1 mph - N/A   Clear
7:15 PM 45.5 °F 39.6 °F 26.6 °F 48% 30.07 in 10.0 mi SW 12.7 mph - N/A   Clear
7:35 PM 44.6 °F 38.1 °F 27.3 °F 51% 30.08 in 10.0 mi SW 13.8 mph 17.3 mph N/A   Clear
7:55 PM 43.9 °F 37.9 °F 27.3 °F 52% 30.08 in 10.0 mi SW 11.5 mph - N/A   Clear
8:15 PM 43.0 °F 37.2 °F 27.1 °F 54% 30.08 in 10.0 mi SW 10.4 mph - N/A   Clear
8:35 PM 41.4 °F 36.2 °F 29.1 °F 62% 30.09 in 10.0 mi SSW 8.1 mph - N/A   Clear
8:55 PM 38.5 °F 33.4 °F 30.7 °F 74% 30.09 in 10.0 mi SSW 6.9 mph - N/A   Clear
10:15 PM 38.1 °F 32.3 °F 29.7 °F 72% 30.11 in 10.0 mi SSW 8.1 mph - N/A   Clear
10:35 PM 37.6 °F 31.0 °F 30.0 °F 74% 30.10 in 10.0 mi SSW 9.2 mph - N/A   Clear
10:55 PM 37.8 °F 31.3 °F 30.0 °F 74% 30.09 in 10.0 mi SSW 9.2 mph - N/A   Clear
11:15 PM 37.8 °F 30.7 °F 30.2 °F 74% 30.09 in 10.0 mi SSW 10.4 mph - N/A   Clear
11:35 PM 38.1 °F 30.7 °F 29.8 °F 72% 30.09 in 10.0 mi SSW 11.5 mph - N/A   Clear
11:55 PM 37.9 °F 29.6 °F 30.2 °F 74% 30.08 in 10.0 mi SSW 13.8 mph - N/A   Clear